Theta_e
295 294 289 292 295 293 290 288 287 289 294 290 287 288 291 293 292 293 295 296 297 317 325 327 326 329 328 330 331 328 335 335 338 337 336 335 334 335 337 340 340 339 339 339
291 289 295 297 296 293 290 288 287 290 292 289 288 287 291 291 292 293 295 295 297 299 315 323 325 327 325 328 328 327 330 335 338 338 333 335 333 334 335 335 336 337 336 337
288 293 298 295 293 290 290 289 287 288 291 290 288 286 289 293 292 294 295 296 297 298 300 313 324 325 324 322 324 327 327 330 334 329 328 328 328 328 329 330 332 335 336 336
290 295 295 294 292 292 286 294 291 291 287 282 288 279 286 289 291 293 294 294 295 297 298 304 320 321 321 322 322 325 326 329 329 328 328 327 325 324 326 326 331 333 335 336
291 293 293 292 293 296 290 296 294 293 286 282 283 281 285 289 289 292 296 302 304 305 296 299 316 322 320 319 321 324 325 326 327 326 326 324 323 325 326 325 325 326 332 334
294 300 298 297 298 298 298 295 293 289 283 278 282 282 282 286 294 296 300 306 308 309 309 306 310 314 318 323 326 328 328 326 326 326 325 325 324 324 323 324 326 325 327 324
293 295 298 301 294 298 295 291 280 277 276 277 284 282 283 296 299 300 301 304 307 310 312 312 311 316 318 319 320 321 321 318 320 318 318 317 317 317 317 318 317 316 316 317
286 284 295 300 296 293 291 289 278 274 275 277 285 280 286 300 303 307 307 307 309 309 310 311 314 315 313 313 314 314 314 313 314 314 314 314 314 313 313 313 314 314 315 315
288 287 298 299 299 297 293 287 288 281 281 279 283 290 298 302 302 306 305 307 307 308 310 310 310 309 310 310 311 311 311 311 312 313 314 313 313 313 313 313 313 313 313 313
293 288 296 298 300 299 295 294 285 283 277 276 285 286 289 297 301 304 304 305 307 308 308 308 307 307 308 309 309 310 311 310 311 312 312 311 311 312 311 310 309 308 308 308
297 292 291 297 295 292 291 290 288 286 283 279 280 285 296 298 300 302 304 306 304 303 303 301 301 302 302 305 306 306 308 307 306 306 306 307 307 307 306 305 305 305 305 305
298 293 286 288 297 299 294 290 286 280 282 283 282 289 301 301 301 303 303 301 299 298 298 299 300 300 300 300 300 300 301 302 302 304 305 305 304 304 303 303 304 304 303 303
298 292 285 288 293 297 292 293 290 288 288 284 281 287 302 304 304 303 299 298 298 298 298 297 298 298 298 298 299 299 300 301 302 303 302 301 301 301 301 301 302 302 302 301
302 291 285 282 286 291 289 292 292 291 284 286 286 293 300 301 300 300 297 298 297 297 297 296 296 296 296 297 298 298 299 300 300 300 299 299 299 299 300 301 301 301 301 301
299 289 291 293 294 294 291 291 291 290 290 288 291 294 299 300 301 297 298 298 296 295 295 295 294 294 295 295 296 297 298 298 298 298 297 297 298 299 299 299 299 300 300 300
298 288 292 292 296 296 292 293 293 293 295 295 296 296 302 302 299 297 298 297 294 294 293 293 293 293 293 293 294 295 295 296 297 296 296 297 298 299 298 298 298 298 298 298
294 291 286 286 295 295 289 294 293 296 297 297 292 298 303 297 297 297 296 296 294 293 292 291 290 290 290 290 292 292 292 294 294 294 295 296 296 297 297 298 297 297 297 297
293 292 288 286 290 281 291 300 300 297 299 300 300 301 297 293 292 293 295 293 292 291 290 288 287 287 287 288 290 291 291 291 292 292 292 294 294 296 298 297 296 296 297 298
295 291 289 286 285 292 296 298 298 295 295 302 294 290 289 291 290 287 291 291 289 289 288 287 287 287 287 287 288 289 289 290 290 290 291 292 294 298 296 294 294 296 299 301
297 297 291 289 286 283 293 300 303 302 290 295 292 290 291 296 288 285 289 289 288 288 288 287 287 287 286 286 287 288 288 287 287 289 290 292 295 296 294 293 295 298 300 301
289 288 287 287 286 291 299 302 301 287 289 296 295 295 294 288 288 286 287 287 287 287 286 287 286 285 286 288 290 288 287 286 289 290 291 291 293 294 293 294 296 297 299 301
287 287 287 286 288 285 296 299 292 293 296 293 290 288 285 286 286 286 286 285 285 285 285 286 285 285 286 287 287 286 286 288 290 290 290 290 292 293 293 293 295 297 298 300
286 289 284 286 285 290 293 292 295 295 291 291 289 289 287 285 284 284 283 283 283 284 285 286 285 285 287 288 288 287 289 291 290 289 290 291 291 291 291 292 294 295 297 297
291 293 286 287 287 288 289 290 291 291 289 290 289 287 286 283 283 282 282 283 284 284 284 285 285 285 285 288 289 289 290 289 289 289 289 289 290 290 289 291 293 295 295 293
290 290 286 285 287 289 288 288 288 288 288 287 287 286 284 283 283 283 283 284 284 285 286 286 285 285 285 287 288 289 289 289 288 288 288 288 289 289 288 289 292 294 291 290
292 288 288 286 289 286 285 288 289 287 286 286 285 284 285 284 283 284 283 283 283 283 282 281 281 284 284 286 287 288 289 290 288 288 287 287 288 288 287 287 290 291 291 290
Wind_Speed
12 11 23 25 22 13 12 4 9 5 7 6 7 6 10 8 4 8 9 8 9 10 11 8 6 7 7 7 7 6 6 6 7 4 4 2 3 2 1 1 2 1 2 4
8 28 18 9 14 15 13 6 4 2 4 5 4 5 8 4 6 9 11 9 10 6 6 7 7 8 9 10 7 8 8 7 5 3 3 1 2 2 2 2 2 3 3 4
18 5 17 17 17 19 19 14 6 5 2 1 2 5 5 5 5 6 7 6 7 11 11 8 7 11 8 8 11 9 5 6 5 6 4 3 3 2 2 2 1 2 4 2
17 14 24 22 21 17 18 10 6 6 4 3 3 5 4 3 6 6 9 8 7 8 7 7 7 7 9 9 7 7 7 7 6 6 3 1 2 2 1 1 1 2 2 3
12 13 16 23 21 19 7 16 11 4 4 2 2 4 8 1 3 7 3 8 5 6 8 8 9 13 3 8 7 8 9 8 7 6 5 4 2 2 2 1 3 3 2 2
12 13 15 19 20 17 13 14 8 5 5 4 7 6 7 1 3 7 4 5 6 6 7 6 4 7 8 9 9 11 12 8 6 7 6 6 4 3 4 4 4 5 3 4
17 18 15 17 17 17 18 17 5 1 3 6 9 6 5 3 4 5 2 4 7 8 8 7 8 10 11 12 12 12 13 11 10 11 10 9 9 9 7 4 5 6 3 4
16 15 16 17 21 14 13 12 7 7 6 4 1 7 4 2 3 4 5 7 12 13 11 12 12 12 14 13 12 14 15 14 11 10 9 9 9 6 6 7 5 4 4 4
12 9 17 13 10 16 23 11 9 7 1 7 4 3 2 4 6 6 8 12 14 14 13 14 14 13 14 13 12 13 14 13 10 9 9 9 7 8 7 6 5 5 6 6
6 5 18 12 12 9 23 12 9 2 6 6 3 5 6 5 7 8 10 15 15 14 15 15 14 14 13 12 11 13 12 12 9 9 7 6 7 8 7 7 8 7 7 8
3 4 1 14 6 18 10 12 5 6 4 7 6 3 4 6 6 12 11 12 12 13 13 12 12 13 11 11 11 12 10 11 10 8 6 8 8 8 8 8 6 5 6 7
3 3 3 5 7 12 4 14 6 7 2 3 4 3 3 7 7 9 11 10 9 12 12 12 12 14 13 11 11 10 9 10 6 6 8 8 7 6 6 6 4 4 6 7
4 3 6 10 7 7 7 5 6 5 4 6 6 4 4 7 8 7 15 13 12 13 13 12 12 12 11 11 10 9 8 8 8 9 8 7 6 5 5 5 5 6 5 5
3 3 5 4 7 11 14 13 8 6 5 5 2 12 10 11 12 10 12 14 13 12 12 12 12 10 11 10 10 10 9 7 7 8 7 6 6 5 5 5 6 5 4 4
4 3 1 9 16 15 12 16 13 8 6 7 9 15 18 14 15 13 13 15 15 12 13 11 11 9 10 10 10 9 8 7 5 6 5 4 3 4 5 4 4 4 4 5
4 2 1 5 10 9 9 13 15 7 8 10 16 11 11 11 16 16 15 16 14 12 13 12 12 12 12 9 7 6 6 5 4 5 5 6 7 5 5 4 5 5 6 6
6 3 5 4 3 5 7 2 4 6 1 19 9 11 20 18 16 15 14 15 16 14 13 12 11 9 8 8 7 7 6 5 5 6 6 6 6 4 4 5 5 6 6 5
3 4 4 3 3 3 3 2 8 18 9 12 22 21 18 18 17 16 11 16 15 13 11 9 8 8 8 7 7 6 7 6 6 7 7 7 6 5 4 5 6 6 4 5
4 3 4 4 4 3 4 5 3 5 9 12 26 22 22 23 22 14 13 14 14 12 10 8 7 6 6 6 6 4 4 5 7 8 9 8 7 7 7 7 8 6 5 7
6 5 3 2 5 3 1 3 10 1 8 14 17 21 24 19 12 5 9 12 13 12 8 7 7 6 6 5 3 2 6 7 7 7 6 7 8 8 7 7 7 6 6 7
4 2 1 5 4 3 1 4 7 4 9 16 18 18 10 6 6 14 12 13 12 9 8 7 7 6 5 6 7 8 6 6 7 7 7 6 7 8 5 8 5 7 7 7
3 2 3 2 4 4 12 7 3 11 15 17 14 16 22 20 18 15 13 11 10 10 8 6 5 6 6 6 5 5 5 5 6 8 7 7 6 6 6 7 7 7 6 7
3 3 5 6 4 7 11 13 13 13 19 14 19 16 22 19 16 13 13 11 9 8 8 7 6 8 7 7 7 8 9 8 9 7 8 7 7 7 7 7 7 5 6 6
4 5 6 4 8 11 15 17 18 20 21 18 17 18 17 20 15 13 10 10 10 9 9 8 8 8 8 9 9 8 9 9 8 8 8 7 6 8 7 5 4 5 6 6
5 4 6 9 8 17 18 15 18 21 19 22 19 16 16 17 14 13 12 11 9 8 7 8 8 8 9 7 9 9 9 9 9 8 8 7 7 7 7 6 4 4 7 7
5 4 1 5 8 14 9 11 13 22 19 18 19 18 14 14 14 11 9 8 8 7 7 7 8 10 9 10 9 10 9 8 9 7 7 5 4 5 5 5 4 8 6 11
Wind_Direction
180 186 205 197 206 218 192 154 183 187 195 147 206 203 244 259 207 243 249 229 227 215 232 242 173 166 159 177 187 182 168 169 154 146 148 151 195 122 176 183 274 197 137 164
166 220 198 188 192 204 232 190 188 252 144 140 185 227 232 227 220 199 219 220 218 218 230 227 195 175 186 191 190 184 190 176 152 108 86 107 138 208 185 191 203 196 190 176
198 240 177 190 184 194 210 206 168 131 63 48 112 302 238 243 220 213 234 217 202 213 212 218 199 205 184 190 194 196 149 123 118 100 110 66 56 37 21 309 242 217 234 261
224 218 180 189 203 184 205 174 156 148 93 188 115 265 279 237 258 218 225 210 219 235 244 189 205 189 201 202 102 113 114 119 115 128 119 53 51 64 274 251 260 250 267 250
207 179 197 199 199 183 197 161 178 142 132 102 285 81 265 340 237 229 59 75 53 337 253 236 206 206 114 112 117 116 118 113 121 132 152 144 142 199 194 350 4 331 353 90
220 177 196 196 196 179 155 159 144 71 105 256 193 138 281 90 297 309 1 36 42 13 357 360 86 88 90 103 99 106 108 101 114 122 125 123 103 71 53 32 49 43 33 342
195 224 200 165 178 195 162 154 118 106 190 216 180 140 230 320 323 250 293 45 74 68 56 47 74 86 84 89 97 101 94 75 71 73 76 77 77 80 86 79 75 71 50 25
187 197 205 184 185 173 183 161 149 154 153 157 193 186 263 35 42 65 86 86 77 71 72 79 86 85 78 78 84 95 94 88 77 83 79 77 81 88 79 72 68 49 41 41
186 218 177 190 158 160 186 195 153 106 167 112 168 62 59 70 62 73 87 87 83 83 73 70 69 71 76 74 72 83 87 84 82 80 77 64 60 69 81 80 80 78 43 43
223 123 177 191 163 165 181 154 155 18 147 125 211 166 171 166 139 116 106 99 91 84 78 74 69 69 68 67 68 66 75 81 71 68 52 63 60 57 53 58 56 51 60 34
315 113 339 176 183 169 145 169 133 135 128 142 138 223 200 156 153 134 118 104 99 91 85 80 76 72 71 68 68 72 69 78 70 67 58 60 56 57 63 61 38 29 34 47
157 124 110 176 174 187 135 169 119 129 175 88 116 154 92 126 126 135 112 94 88 90 94 90 86 82 69 63 56 60 54 62 63 73 77 73 72 64 62 68 49 24 37 19
200 122 129 116 88 210 212 180 141 112 102 186 125 185 123 125 119 131 116 106 100 101 93 82 76 69 70 61 59 54 46 53 53 62 65 56 54 58 52 48 32 24 24 14
199 141 187 179 129 134 188 181 165 134 117 160 192 135 152 141 139 120 106 108 104 92 88 84 71 68 67 59 52 50 49 46 55 61 56 53 43 40 40 25 14 1 356 348
208 167 210 130 136 146 150 171 175 168 159 146 173 153 163 150 140 124 118 113 101 91 81 74 73 62 58 54 45 39 41 43 44 63 68 65 65 54 40 18 346 329 337 338
228 108 72 73 100 116 140 168 177 161 95 65 114 84 118 104 113 121 123 113 98 87 82 71 65 55 47 40 41 40 36 27 38 47 38 30 29 21 8 349 341 340 340 330
19 56 62 39 22 116 75 27 126 107 121 140 145 153 132 126 121 124 124 112 108 102 91 80 71 62 53 37 31 35 17 13 30 33 25 23 14 352 340 346 341 335 321 312
348 50 64 93 31 108 257 230 107 91 51 102 107 128 120 110 94 84 88 105 103 97 90 79 72 52 30 18 17 13 9 11 19 22 11 7 351 329 353 354 335 322 310 312
35 64 72 106 83 165 69 134 130 121 50 127 119 117 117 116 89 57 72 84 94 93 84 76 67 58 35 19 2 10 12 18 16 14 7 344 320 351 3 350 335 317 321 335
53 43 55 98 95 175 43 111 111 89 87 115 122 128 136 145 123 135 106 94 87 82 80 76 64 56 45 8 349 23 30 15 360 354 339 328 351 356 352 335 324 329 327 326
79 48 90 109 99 92 353 340 328 145 157 135 139 141 121 89 90 114 105 90 83 79 78 74 62 47 25 5 14 31 13 360 344 343 333 339 346 349 349 330 333 331 330 329
114 161 79 81 106 110 356 328 111 139 105 109 97 104 105 105 104 107 100 91 84 76 68 63 65 55 35 19 16 19 5 332 343 349 346 341 352 354 346 337 336 336 339 340
64 358 116 38 57 33 37 78 73 101 104 108 107 112 111 111 105 107 102 94 86 79 73 64 59 54 37 30 25 19 8 359 353 355 354 353 355 357 353 350 342 348 350 5
54 11 84 124 20 61 62 69 74 82 90 94 93 103 106 107 111 105 101 98 88 76 66 57 53 48 37 24 23 15 5 6 10 7 4 359 359 358 3 358 354 9 16 21
12 26 101 80 113 79 52 63 88 85 87 89 85 90 101 106 100 102 98 91 80 70 59 49 40 33 23 10 19 11 2 9 13 12 11 5 359 4 4 1 358 49 54 51
354 174 101 87 84 99 88 79 87 96 92 96 101 94 86 95 101 105 95 75 68 59 45 41 31 31 12 15 15 8 360 12 15 8 12 7 1 354 12 7 10 45 61 62